When you browse on this site, cookies collect data to enhance your experience and personalize the content and advertising you see.
Visit our Privacy Policy to learn more. By continuing to use the site, you agree to this use of cookies and data.
  • In Hungary
  • List of Countries
  • For 7 days
  • Water Temperature
  • Weather Map
  • News
  • Weather Widgets
  • user-avatar
    Login

    Hourly Weather Trehrechnyy

    Today, 17 October, Thursday

    Time Temperature Precipitation Wind Pressure Humidity
    00:00 +14°C° 0 mm 3 mps 743 mmHg 65%
    01:00 +14°C° 0 mm 3 mps 743 mmHg 66%
    02:00 +14°C° 0 mm 3 mps 743 mmHg 67%
    03:00 +15°C° 0 mm 2 mps 744 mmHg 70%
    04:00 +14°C° 0 mm 2 mps 744 mmHg 69%
    05:00 +14°C° 0 mm 2 mps 743 mmHg 68%
    06:00 +14°C° 0 mm 2 mps 743 mmHg 68%
    07:00 +16°C° 0 mm 2 mps 744 mmHg 62%
    08:00 +18°C° 0 mm 2 mps 744 mmHg 56%
    09:00 +19°C° 0 mm 2 mps 744 mmHg 50%
    10:00 +21°C° 0 mm 2 mps 744 mmHg 46%
    11:00 +24°C° 0 mm 2 mps 744 mmHg 41%
    12:00 +26°C° 0 mm 2 mps 744 mmHg 36%
    13:00 +26°C° 0 mm 2 mps 744 mmHg 37%
    14:00 +27°C° 0 mm 2 mps 743 mmHg 37%
    15:00 +27°C° 0 mm 2 mps 743 mmHg 37%
    16:00 +25°C° 0 mm 2 mps 743 mmHg 45%
    17:00 +21°C° 0 mm 2 mps 743 mmHg 54%
    18:00 +19°C° 0 mm 2 mps 743 mmHg 62%
    19:00 +18°C° 0 mm 2 mps 743 mmHg 63%
    20:00 +18°C° 0 mm 2 mps 743 mmHg 63%
    21:00 +17°C° 0 mm 2 mps 743 mmHg 64%
    22:00 +17°C° 0 mm 2 mps 743 mmHg 62%
    23:00 +17°C° 0 mm 2 mps 743 mmHg 60%

    Tomorrow, 18 October, Friday

    Time Temperature Precipitation Wind Pressure Humidity
    00:00 +16°C° 0 mm 2 mps 742 mmHg 57%
    01:00 +16°C° 0 mm 1 mps 742 mmHg 56%
    02:00 +16°C° 0 mm 1 mps 742 mmHg 54%
    03:00 +16°C° 0 mm 1 mps 742 mmHg 52%
    04:00 +15°C° 0 mm 1 mps 742 mmHg 50%
    05:00 +15°C° 0 mm 1 mps 742 mmHg 49%
    06:00 +15°C° 0 mm 1 mps 742 mmHg 48%
    07:00 +18°C° 0 mm 1 mps 742 mmHg 45%
    08:00 +20°C° 0 mm 1 mps 742 mmHg 42%
    09:00 +20°C° 0 mm 0 mps 742 mmHg 39%
    10:00 +23°C° 0 mm 1 mps 742 mmHg 36%
    11:00 +25°C° 0 mm 1 mps 742 mmHg 33%
    12:00 +26°C° 0 mm 2 mps 742 mmHg 30%
    13:00 +27°C° 0 mm 2 mps 742 mmHg 31%
    14:00 +27°C° 0 mm 2 mps 742 mmHg 32%
    15:00 +27°C° 0 mm 2 mps 742 mmHg 33%
    16:00 +25°C° 0 mm 1 mps 742 mmHg 38%
    17:00 +23°C° 0 mm 1 mps 742 mmHg 43%
    18:00 +21°C° 0 mm 1 mps 741 mmHg 48%
    19:00 +21°C° 0 mm 1 mps 741 mmHg 50%
    20:00 +20°C° 0 mm 1 mps 741 mmHg 52%
    21:00 +19°C° 0 mm 1 mps 741 mmHg 54%
    22:00 +19°C° 0 mm 1 mps 741 mmHg 56%
    23:00 +18°C° 0 mm 1 mps 741 mmHg 58%

    Day after tomorrow, 19 October, Saturday

    Time Temperature Precipitation Wind Pressure Humidity
    00:00 +18°C° 0 mm 1 mps 742 mmHg 59%
    01:00 +18°C° 0 mm 1 mps 742 mmHg 61%
    02:00 +16°C° 0 mm 1 mps 742 mmHg 63%
    03:00 +16°C° 0 mm 1 mps 742 mmHg 65%
    04:00 +16°C° 0 mm 1 mps 742 mmHg 66%
    05:00 +15°C° 0 mm 1 mps 742 mmHg 67%
    06:00 +15°C° 0 mm 1 mps 742 mmHg 68%
    07:00 +16°C° 0 mm 0 mps 743 mmHg 64%
    08:00 +17°C° 0 mm 0 mps 743 mmHg 59%
    09:00 +19°C° 0 mm 0 mps 743 mmHg 54%
    10:00 +20°C° 0 mm 0 mps 743 mmHg 50%
    11:00 +24°C° 0 mm 1 mps 743 mmHg 46%
    12:00 +25°C° 0 mm 1 mps 743 mmHg 42%
    13:00 +25°C° 0 mm 2 mps 743 mmHg 41%
    14:00 +26°C° 0 mm 2 mps 743 mmHg 41%
    15:00 +26°C° 0 mm 2 mps 743 mmHg 40%
    16:00 +24°C° 0 mm 2 mps 743 mmHg 45%
    17:00 +21°C° 0 mm 2 mps 743 mmHg 50%
    18:00 +19°C° 0 mm 2 mps 743 mmHg 55%
    19:00 +19°C° 0 mm 2 mps 743 mmHg 57%
    20:00 +18°C° 0 mm 2 mps 743 mmHg 59%
    21:00 +17°C° 0 mm 2 mps 743 mmHg 61%
    22:00 +17°C° 0 mm 2 mps 743 mmHg 63%
    23:00 +16°C° 0 mm 2 mps 743 mmHg 64%

    20 October, Sunday

    Time Temperature Precipitation Wind Pressure Humidity
    00:00 +16°C° 0 mm 2 mps 743 mmHg 65%
    01:00 +16°C° 0 mm 2 mps 743 mmHg 67%
    02:00 +15°C° 0 mm 1 mps 743 mmHg 68%
    03:00 +15°C° 0 mm 1 mps 744 mmHg 70%
    04:00 +15°C° 0 mm 1 mps 744 mmHg 71%
    05:00 +15°C° 0 mm 1 mps 744 mmHg 72%
    06:00 +14°C° 0 mm 1 mps 744 mmHg 73%
    07:00 +16°C° 0 mm 1 mps 744 mmHg 68%
    08:00 +18°C° 0 mm 1 mps 744 mmHg 63%
    09:00 +19°C° 0 mm 2 mps 745 mmHg 58%
    10:00 +21°C° 0 mm 2 mps 745 mmHg 53%
    11:00 +22°C° 0 mm 3 mps 745 mmHg 48%
    12:00 +25°C° 0 mm 3 mps 745 mmHg 43%
    13:00 +25°C° 0 mm 4 mps 745 mmHg 43%
    14:00 +26°C° 0 mm 4 mps 744 mmHg 43%
    15:00 +26°C° 0 mm 5 mps 744 mmHg 43%
    16:00 +23°C° 0 mm 4 mps 744 mmHg 48%
    17:00 +21°C° 0 mm 4 mps 744 mmHg 52%
    18:00 +20°C° 0 mm 4 mps 744 mmHg 57%
    19:00 +19°C° 0 mm 4 mps 744 mmHg 58%
    20:00 +18°C° 0 mm 4 mps 744 mmHg 58%
    21:00 +17°C° 0 mm 4 mps 744 mmHg 59%
    22:00 +15°C° 0 mm 4 mps 744 mmHg 60%
    23:00 +16°C° 0 mm 3 mps 744 mmHg 62%

    21 October, Monday

    Time Temperature Precipitation Wind Pressure Humidity
    00:00 +14°C° 0 mm 3 mps 744 mmHg 63%
    01:00 +14°C° 0 mm 3 mps 744 mmHg 65%
    02:00 +13°C° 0 mm 3 mps 744 mmHg 67%
    03:00 +13°C° 0 mm 3 mps 744 mmHg 68%
    04:00 +14°C° 0 mm 2 mps 744 mmHg 70%
    05:00 +13°C° 0 mm 2 mps 744 mmHg 71%
    06:00 +13°C° 0 mm 2 mps 744 mmHg 73%
    07:00 +13°C° 0 mm 3 mps 744 mmHg 68%
    08:00 +16°C° 0 mm 3 mps 744 mmHg 63%
    09:00 +17°C° 0 mm 3 mps 744 mmHg 58%
    10:00 +19°C° 0 mm 4 mps 744 mmHg 53%
    11:00 +20°C° 0 mm 4 mps 745 mmHg 48%
    12:00 +22°C° 0 mm 4 mps 745 mmHg 42%
    13:00 +22°C° 0 mm 5 mps 744 mmHg 41%
    14:00 +23°C° 0 mm 5 mps 744 mmHg 40%
    15:00 +23°C° 0 mm 5 mps 744 mmHg 38%
    16:00 +21°C° 0 mm 5 mps 744 mmHg 43%
    17:00 +19°C° 0 mm 5 mps 744 mmHg 47%
    18:00 +17°C° 0 mm 5 mps 743 mmHg 51%
    19:00 +16°C° 0 mm 5 mps 743 mmHg 55%
    20:00 +15°C° 0 mm 4 mps 743 mmHg 60%
    21:00 +14°C° 0 mm 4 mps 743 mmHg 64%
    22:00 +14°C° 0 mm 4 mps 743 mmHg 66%
    23:00 +13°C° 0 mm 4 mps 743 mmHg 68%

    22 October, Tuesday

    Time Temperature Precipitation Wind Pressure Humidity
    00:00 +13°C° 0 mm 4 mps 743 mmHg 70%
    01:00 +12°C° 0 mm 3 mps 743 mmHg 72%
    02:00 +12°C° 0 mm 3 mps 743 mmHg 74%
    03:00 +12°C° 0 mm 3 mps 743 mmHg 76%
    04:00 +12°C° 0 mm 2 mps 743 mmHg 78%
    05:00 +12°C° 0 mm 2 mps 743 mmHg 79%
    06:00 +12°C° 0 mm 2 mps 743 mmHg 81%
    07:00 +13°C° 0 mm 2 mps 743 mmHg 75%
    08:00 +15°C° 0 mm 2 mps 744 mmHg 70%
    09:00 +16°C° 0 mm 2 mps 744 mmHg 64%
    10:00 +18°C° 0 mm 2 mps 744 mmHg 60%
    11:00 +20°C° 0 mm 3 mps 744 mmHg 55%
    12:00 +21°C° 0 mm 3 mps 744 mmHg 50%
    13:00 +22°C° 0 mm 3 mps 743 mmHg 49%
    14:00 +22°C° 0 mm 3 mps 743 mmHg 48%
    15:00 +22°C° 0 mm 3 mps 743 mmHg 47%
    16:00 +21°C° 0 mm 3 mps 743 mmHg 53%
    17:00 +19°C° 0 mm 3 mps 743 mmHg 59%
    18:00 +17°C° 0 mm 3 mps 743 mmHg 64%
    19:00 +16°C° 0 mm 3 mps 743 mmHg 68%
    20:00 +14°C° 0 mm 3 mps 743 mmHg 71%
    21:00 +14°C° 0 mm 3 mps 743 mmHg 74%
    22:00 +14°C° 0 mm 2 mps 742 mmHg 77%
    23:00 +14°C° 0 mm 2 mps 742 mmHg 79%
    Show more